DW9572 Weather Reports


time (UTC)temp
F
wind
direction
speed
knots
gust
knots
rain 1hr
in
rain 24hr
in
rain mn
in
humidity
%
barometer
mb
20260509200107 73 159 3.5 7.8 0.00 0.00 0.00 36 1018.6
20260509194541 72 141 4.3 9.6 0.00 0.00 0.00 38 1018.7
20260509193044 72 122 5.2 8.7 0.00 0.00 0.00 38 1019.0
20260509191518 71 111 6.1 8.7 0.00 0.00 0.00 39 1019.0
20260509190019 70 132 4.3 7.8 0.00 0.00 0.00 39 1019.1
20260509184602 70 203 4.3 8.7 0.00 0.00 0.00 39 1019.3
20260509183055 69 191 4.3 8.7 0.00 0.00 0.00 42 1019.6
20260509181534 69 321 2.6 7.8 0.00 0.00 0.00 42 1019.8
20260509180032 68 148 3.5 7.0 0.00 0.00 0.00 43 1019.8
20260509174516 67 100 6.1 8.7 0.00 0.00 0.00 45 1020.0
20260509173016 67 153 4.3 7.8 0.00 0.00 0.00 44 1020.1
20260509171553 67 143 4.3 8.7 0.00 0.00 0.00 44 1020.2
20260509170100 66 172 2.6 9.6 0.00 0.00 0.00 43 1020.3
20260509164531 66 173 3.5 7.0 0.00 0.00 0.00 44 1020.2
20260509163051 65 186 4.3 8.7 0.00 0.00 0.00 43 1020.2
20260509161518 65 212 5.2 12.2 0.00 0.00 0.00 46 1020.3
20260509160013 64 198 7.8 11.3 0.00 0.00 0.00 47 1020.3
20260509154510 64 195 7.8 12.2 0.00 0.00 0.00 48 1020.3
20260509153016 63 238 9.6 13.9 0.00 0.00 0.00 50 1020.3
20260509151504 61 203 8.7 13.0 0.00 0.00 0.00 53 1020.3
20260509150001 61 260 10.4 13.0 0.00 0.00 0.00 52 1020.4
20260509144602 60 250 7.8 13.0 0.00 0.00 0.00 54 1020.2
20260509143059 58 233 8.7 12.2 0.00 0.00 0.00 55 1020.1
20260509141533 57 263 5.2 8.7 0.00 0.00 0.00 57 1019.9
20260509140028 56 277 4.3 7.0 0.00 0.00 0.00 57 1019.9
20260509134506 54 261 6.1 7.8 0.00 0.00 0.00 58 1019.8
20260509133006 54 270 5.2 8.7 0.00 0.00 0.00 61 1019.6
20260509131547 54 263 6.1 7.8 0.00 0.00 0.00 61 1019.6
20260509130052 53 276 4.3 7.8 0.00 0.00 0.00 61 1019.5
20260509124540 53 278 4.3 9.6 0.00 0.00 0.00 62 1019.4
20260509123032 54 277 5.2 7.8 0.00 0.00 0.00 59 1019.6
20260509121538 54 280 2.6 5.2 0.00 0.00 0.00 59 1019.4
20260509120024 53 293 4.3 7.8 0.00 0.00 0.00 62 1019.4
20260509114545 53 276 5.2 7.8 0.00 0.00 0.00 62 1019.3
20260509113023 53 276 3.5 7.0 0.00 0.00 0.00 62 1019.3
20260509111521 52 229 3.5 7.0 0.00 0.00 0.00 58 1019.2
20260509110021 53 151 0.0 8.7 0.00 0.00 0.00 57 1019.1
20260509104503 52 16 0.9 6.1 0.00 0.00 0.00 60 1019.0
20260509103059 58 335 5.2 8.7 0.00 0.00 0.00 48 1018.7
20260509101541 56 49 1.7 7.8 0.00 0.00 0.00 52 1018.9
20260509100040 56 308 5.2 6.1 0.00 0.00 0.00 53 1018.7
20260509094525 56 345 2.6 7.0 0.00 0.00 0.00 50 1018.6
20260509093022 56 304 5.2 6.1 0.00 0.00 0.00 53 1018.6
20260509091504 55 311 2.6 3.5 0.00 0.00 0.00 51 1018.6
20260509090011 57 342 4.3 7.0 0.00 0.00 0.00 46 1018.5
20260509084547 57 359 0.0 0.0 0.00 0.00 0.00 49 1018.5
20260509083050 58 1 0.0 0.0 0.00 0.00 0.00 46 1018.4
20260509081531 59 62 0.0 0.9 0.00 0.00 0.00 42 1018.4
20260509080033 60 8 2.6 4.3 0.00 0.00 0.00 41 1018.2
20260509074534 61 233 6.1 13.0 0.00 0.00 0.00 44 1018.1
20260509073025 61 41 0.9 4.3 0.00 0.00 0.00 41 1017.8
20260509071524 60 82 6.1 10.4 0.00 0.00 0.00 44 1017.7
20260509070032 62 11 6.1 7.8 0.00 0.00 0.00 40 1017.1
20260509064521 62 311 6.1 7.8 0.00 0.00 0.00 41 1017.1
20260509063020 63 97 2.6 6.1 0.00 0.00 0.00 39 1017.2
20260509061520 65 293 0.9 13.9 0.00 0.00 0.00 37 1016.8
20260509060100 67 335 13.0 18.2 0.00 0.00 0.00 35 1016.4
20260509054600 67 360 9.6 18.2 0.00 0.00 0.00 35 1016.2
20260509053044 68 344 16.5 23.5 0.00 0.00 0.00 34 1016.0
20260509051543 67 323 9.6 19.1 0.00 0.00 0.00 34 1015.8
20260509050040 68 335 12.2 20.0 0.00 0.00 0.00 33 1015.7
20260509044518 68 335 12.2 17.4 0.00 0.00 0.00 32 1015.6
20260509043104 68 338 12.2 19.1 0.00 0.00 0.00 31 1015.6
20260509043002 68 343 13.9 19.1 0.00 0.00 0.00 31 1015.6
20260509041600 68 356 9.6 13.9 0.00 0.00 0.00 31 1015.5
20260509040048 68 349 7.8 12.2 0.00 0.00 0.00 29 1015.3
20260509034545 69 338 8.7 16.5 0.00 0.00 0.00 28 1014.9
20260509033058 69 332 9.6 15.6 0.00 0.00 0.00 27 1014.7
20260509031540 69 324 11.3 17.4 0.00 0.00 0.00 25 1014.5
20260509030039 70 326 9.6 17.4 0.00 0.00 0.00 23 1014.3
20260509024540 71 355 11.3 15.6 0.00 0.00 0.00 21 1014.0
20260509023036 72 347 12.2 20.0 0.00 0.00 0.00 20 1013.8
20260509021534 73 352 12.2 18.2 0.00 0.00 0.00 18 1013.7
20260509020022 74 350 13.9 20.0 0.00 0.00 0.00 17 1013.5
20260509014518 75 341 11.3 20.9 0.00 0.00 0.00 17 1013.4
20260509013001 76 336 14.8 20.9 0.00 0.00 0.00 17 1013.3
20260509011504 77 360 13.9 20.9 0.00 0.00 0.00 17 1013.2
20260509010101 78 343 8.7 18.2 0.00 0.00 0.00 18 1013.1
20260509004603 78 338 12.2 19.1 0.00 0.00 0.00 18 1013.2
20260509003102 79 336 8.7 17.4 0.00 0.00 0.00 16 1012.9
20260509001559 79 32 8.7 15.6 0.00 0.00 0.00 18 1012.8
20260509000058 80 358 7.8 13.9 0.00 0.00 0.00 17 1012.8
20260508234558 80 9 8.7 14.8 0.00 0.00 0.00 16 1012.7
20260508233039 80 309 4.3 15.6 0.00 0.00 0.00 18 1012.6
20260508231545 80 340 4.3 13.0 0.00 0.00 0.00 19 1012.7
20260508230020 79 285 0.0 10.4 0.00 0.00 0.00 18 1012.7
20260508224540 79 340 7.8 20.0 0.00 0.00 0.00 17 1012.9
20260508223100 79 301 8.7 17.4 0.00 0.00 0.00 17 1013.0
20260508223002 79 318 10.4 17.4 0.00 0.00 0.00 17 1012.9
20260508221610 79 205 10.4 22.6 0.00 0.00 0.00 17 1012.8
20260508220041 78 243 8.7 18.2 0.00 0.00 0.00 20 1012.9
20260508214546 79 304 8.7 16.5 0.00 0.00 0.00 19 1013.1
20260508213030 78 254 7.8 14.8 0.00 0.00 0.00 20 1013.0
20260508211524 79 312 7.8 19.1 0.00 0.00 0.00 18 1013.1
20260508210001 78 311 8.7 15.6 0.00 0.00 0.00 17 1013.1
20260508204559 77 278 11.3 15.6 0.00 0.00 0.00 19 1013.2
20260508203039 76 278 6.1 14.8 0.00 0.00 0.00 18 1013.1
20260508201540 76 301 9.6 16.5 0.00 0.00 0.00 16 1013.3